997  
ASUS43 KIWX 252010  
RWRIWX  
 
KIWX WEATHER ROUNDUP  
NATIONAL WEATHER SERVICE NORTHERN INDIANA  
400 PM EDT TUE JUL 25 2017  
 
NOTE: "FAIR" INDICATES FEW OR NO CLOUDS BELOW 12,000 FEET WITH NO  
SIGNIFICANT WEATHER AND/OR S TO VISIBILITY
.  
 
* THESE STATIONS ARE NOT UNDER NWS QUALITY CONTROL. THEY ALSO MAY NOT  
REPORT WEATHER SUCH AS PRECIPITATION OR FOG.
 
 
INZ001>027-252100-  
NORTHERN INDIANA  
 
CITY SKY/WX TMP DP RH WIND PRES REMARKS
 
GARY* MOSUNNY 81 52 36 SE8 30.19F  
VALPARAISO SUNNY 80 57 45 E9 30.21F  
MICHIGAN CITY* SUNNY 79 54 41 SE8 30.21F  
LAPORTE* SUNNY 77 56 47 E7 30.21F  
KNOX* SUNNY 77 55 47 E6 30.20F  
SOUTH BEND SUNNY 78 54 43 SE9 30.21F  
ELKHART* SUNNY 77 50 38 E7 30.21  
GOSHEN SUNNY 79 52 38 E8 30.22S  
MONTICELLO* SUNNY 78 57 48 E5 30.19S  
LOGANSPORT* SUNNY 77 55 47 E9 30.20F  
ROCHESTER* SUNNY 81 52 36 SE9 30.22R  
WARSAW* SUNNY 77 54 44 E7 30.22S  
AUBURN* SUNNY 77 52 41 CALM 30.23S  
FORT WAYNE MOSUNNY 78 58 49 E7 30.22F  
HUNTINGTON* SUNNY 75 57 53 SE8 30.21F  
PERU/GRISSOM SUNNY 77 57 50 E8 30.19F  
 

 
INZ028>050-252100-  
CENTRAL INDIANA  
 
CITY SKY/WX TMP DP RH WIND PRES REMARKS
 
LAFAYETTE SUNNY 79 61 53 E12 30.17F  
KOKOMO* SUNNY 77 59 53 E10 30.21F  
MUNCIE* SUNNY 79 58 48 E14 30.20F  
INDIANAPOLIS MOSUNNY 80 57 45 E7 30.17F  
 

 
MIZ043>046-050>051-056>058-064>065-071>073-077>080-252100-  
SOUTHWEST LOWER MICHIGAN  
 
CITY SKY/WX TMP DP RH WIND PRES REMARKS
 
BATTLE CREEK SUNNY 80 50 34 CALM 30.23F  
BENTON HARBOR SUNNY 77 59 53 VRB5 30.21F  
COLDWATER* SUNNY 77 53 43 E6 30.22F  
HILLSDALE* PTSUNNY 77 50 38 SE8 30.23S  
HOLLAND SUNNY 79 59 50 VRB6 30.22F  
GRAND RAPIDS MOSUNNY 79 51 37 VRB3 30.22F  
KALAMAZOO SUNNY 80 47 31 CALM 30.22F  
STURGIS* SUNNY 76 56 48 E8 30.22S  
THREE RIVERS* FAIR 78 51 39 E6 30.22F  
 

 
OHZ001>008-015>018-024>025-252100-  
NORTHWEST OHIO  
 
CITY SKY/WX TMP DP RH WIND PRES REMARKS
 
WAUSEON* FAIR 77 57 50 VRB6 30.22F  
DEFIANCE SUNNY N/A N/A N/A E7 30.22F  
FINDLAY MOSUNNY 78 58 49 N8 30.22R  
TOLEDO EXPRESS SUNNY 77 57 50 E8 30.22R  
TOLEDO METCALF MOSUNNY 77 58 51 VRB6 30.24R  
LIMA SUNNY 76 60 57 E5 30.23R  
 

 
AND FOR LAKE MICHIGAN COASTAL AND OPEN LAKE BUOY OBSERVATIONS  
 
STATION/POSITION TEMP WIND PRES VSBY WAVE
 
AIR SEA DIR/SP/G HT/PER  
(F) (DEG/KT/KT) (MB) (MI) (FT/S)  
CALUMET HARBOR 75 60/ 9/ 11 1021.8F  
MICHIGAN CITY 76 130/ 7/ 13 N/A  
BURNS HARBOR 78 150/ 7/ 13 1022.7F  
SAINT JOSEPH 73 360/ 5/ 7 1023.4  
SOUTH LAKE BUOY 71 70 180/ 4/ 6 1023.3F 2/ 4  
4 MI NW BRIDGMAN 77 75 CALM / 2 1022.4 1  
MICHIGAN CITY 76 75 170/ 6/ 8 N/A 1/ 5  
 

 

 
 
 
CLICK HERE TO GO TO PREVIOUS BULLETINS.

The Nexlab IN Page
The Nexlab OH Page
The Nexlab MI Page Main Text Page